AirNav  
 
 1591 users online  

VA60 Flying Horse Farm Balloonport
Unison, Virginia, USA

GOING TO UNISON?


FAA INFORMATION EFFECTIVE 25 MARCH 2021

Location

FAA Identifier: VA60
Lat/Long: 39-03-05.3860N 077-46-38.9800W
39-03.089767N 077-46.649667W
39.0514961,-77.7774944
(estimated)
Elevation: 450 ft. / 137 m (estimated)
Variation: 09W (1985)
From city: 2 miles N of UNISON, VA
Time zone: UTC -4 (UTC -5 during Standard Time)
Zip code: 20141

Balloonport Operations

Balloonport use: Private use. Permission required prior to landing
Activation date: 02/1989
Control tower: no
ARTCC: WASHINGTON CENTER
FSS: LEESBURG FLIGHT SERVICE STATION
Attendance: APR-NOV DAWN-DUSK
Wind indicator: yes
Segmented circle: no

Balloonport Communications

WX AWOS-3 at JYO (10 nm E): 125.225 (703-777-3781)
WX ASOS at IAD (16 nm SE): PHONE 703-661-2990
WX AWOS-3 at OKV (18 nm W): 124.85 (540-662-6970)

Nearby radio navigation aids

VOR radial/distance  VOR name  Freq  Var
AMLr304/16.1ARMEL VOR/DME113.5008W
MRBr178/20.3MARTINSBURG VORTAC112.1007W
LDNr065/23.2LINDEN VORTAC114.3006W
CSNr015/25.0CASANOVA VORTAC116.3006W
FDKr229/(28.6)FREDERICK VOR109.0008W
DCAr297/36.4WASHINGTON VOR/DME111.0009W
HGRr182/(38.9)HAGERSTOWN VOR109.8007W

 
NDB name  Hdg/Dist  Freq  Var  ID
GEORGETOWN292/31.332309WGTN --. - -.
NAILR019/36.335110WMSQ -- ... --.-
CAVERNS066/38.724509WLUA .-.. ..- .-
DAVEE316/39.022309WDAA -.. .- .-
OXONN307/39.033211WDCA -.. -.-. .-

Balloonport Services

Runway Information

Runway B1

Dimensions: 300 x 300 ft. / 91 x 91 m
Surface: turf
Traffic pattern: leftleft

Balloonport Ownership and Management from official FAA records

Ownership: Privately-owned
Owner: ROBERT O. G. THOMAS
20273 UNISON RD
ROUND HILL, VA 20141
Phone 703-898-1157
Manager: Phone (540) 554-2002

Additional Remarks

FOR CD CTC POTOMAC APCH AT 866-709-4993.

Instrument Procedures

There are no published instrument procedures at VA60.

Some nearby airports with instrument procedures:

9VA5 - Bluegrass Heliport (5 nm W)
2VG2 - Upperville Airport (6 nm SW)
KJYO - LeesburgExecutive Airport (10 nm E)
KIAD - Washington Dulles International Airport (16 nm SE)
KOKV - Winchester Regional Airport (18 nm W)
 
Loc | Ops | Rwys | IFR | FBO | Links
Com | Nav | Svcs | Stats | Notes
Area around VA60 (Flying Horse Farm Balloonport)
 
Road maps at: MapQuest Bing Google
 
Aerial photo
WARNING: Photo may not be current or correct
Aerial photo of VA60 (Flying Horse Farm Balloonport)
Do you have a better or more recent aerial photo of Flying Horse Farm Balloonport that you would like to share? If so, please send us your photo.

 
Sectional chart

 
Airport distance calculator
Flying to Flying Horse Farm Balloonport? Find the distance to fly.

From to VA60

Sunrise and sunset
Times for 19-Apr-2021
 Local
(UTC-4)
 Zulu
(UTC)
Morning civil twilight06:0210:02
Sunrise06:3010:30
Sunset19:5123:51
Evening civil twilight20:1900:19

Current date and time
Zulu (UTC)  19-Apr-2021 17:01:19
Local (UTC-4)  19-Apr-2021 13:01:19
 
METAR
KJYO 
10nm E 
191655Z AUTO 21005KT 10SM CLR 15/08 A2988 RMK AO2
KIAD 
17nm SE 
191652Z 19005KT 10SM CLR 14/07 A2987 RMK AO2 SLP113 T01440072
KOKV 
18nm W 
191655Z AUTO 16004KT 10SM SCT075 16/03 A2982 RMK AO2
TAF
KIAD 
17nm SE 
191504Z 1915/2018 20005KT P6SM FEW060 OVC110 FM191800 26006KT P6SM SCT050 BKN090 FM192300 VRB03KT P6SM SCT050 FM200800 22004KT P6SM FEW200 FM201600 22009KT P6SM SCT050 SCT200
NOTAMs
Click for the latest NOTAMs
NOTAMs are issued by the DoD/FAA and will open in a separate window not controlled by AirNav.

 

 
 

Would you like to see your business listed on this page?

 If your business provides an interesting product or service to pilots, flight crews, aircraft, or users of the Flying Horse Farm Balloonport, you should consider listing it here.  To start the listing process, click on the button below
 
Add a business
 

Other Pages about Flying Horse Farm Balloonport

Update a link
 
Copyright © AirNav, LLC. All rights reserved. Privacy Policy  Contact